Theta_e
315 314 314 314 314 314 315 315 315 316 317 317 316 315 315 315 313 314 314 312 313 315 315 315 316 316 316 316 317 317 316 316 316 317 317 317 317 317 318 317 317 316 316 316 316 315 315 315 315 315 315 315 315 315 315 315 315 315 316 316 316 316 316 316 316 317 317 318 319 320 320 319 319 320 320 321 322 322 321 321 323 325 323 324 326 323
314 314 314 315 315 315 314 315 314 314 316 316 316 315 315 315 314 314 314 312 312 314 315 316 315 316 316 316 317 317 317 317 317 317 317 318 318 318 318 318 316 316 316 316 316 316 316 315 315 315 315 315 315 315 315 315 315 315 315 315 316 316 316 316 316 316 317 318 321 323 324 323 322 323 323 323 325 325 324 325 326 326 325 324 323 322
313 315 315 314 315 314 314 314 313 314 315 316 316 314 314 315 315 313 313 312 312 313 315 316 315 316 316 316 317 318 318 318 317 317 317 317 317 317 317 316 316 316 315 316 316 316 316 316 315 315 315 315 315 315 315 315 315 315 315 315 315 316 315 316 316 316 317 319 322 325 326 326 325 325 325 323 324 325 325 325 325 323 323 323 322 324
313 314 314 314 314 314 313 313 314 314 314 315 315 313 314 315 314 313 313 313 312 312 313 315 315 315 316 316 317 316 315 315 314 313 313 312 313 314 314 314 314 315 314 314 315 315 315 315 316 315 315 315 315 315 315 315 315 315 315 315 315 315 315 315 315 315 316 318 322 324 324 325 324 324 323 321 322 322 321 321 320 320 322 324 325 326
314 312 310 312 314 313 313 313 314 313 313 317 317 315 315 316 314 314 315 313 313 312 312 314 313 314 315 316 316 314 312 313 312 312 313 313 312 312 312 313 313 313 313 313 313 314 314 315 315 315 316 315 315 315 315 315 315 315 315 315 315 315 315 315 315 315 315 315 318 320 320 319 319 318 318 317 317 317 317 318 318 319 322 325 327 326
314 309 308 312 313 313 314 313 314 314 313 315 317 317 315 315 314 315 315 314 314 313 313 314 311 311 315 316 316 314 312 313 314 315 316 315 315 314 315 315 313 313 313 312 312 313 313 313 314 314 315 315 315 315 315 315 315 315 315 315 315 315 315 315 315 315 315 314 315 316 317 317 316 315 315 315 315 316 316 317 318 318 320 323 326 326
311 307 309 313 313 315 314 313 315 315 313 313 316 316 314 315 316 315 316 315 314 313 313 313 311 311 314 315 315 314 313 314 315 316 317 316 316 316 317 316 314 313 313 313 313 312 312 312 313 313 313 313 314 314 314 315 315 315 315 315 315 315 314 314 314 314 314 315 315 315 315 315 315 315 315 315 315 316 316 317 318 318 319 320 322 323
310 308 311 313 314 315 314 314 316 315 313 315 316 315 313 315 316 316 317 316 315 315 313 314 315 313 312 314 315 313 313 315 315 316 316 316 316 316 316 315 314 314 314 314 314 313 313 313 313 313 313 313 313 313 313 314 314 314 314 314 314 313 313 313 313 314 314 314 315 315 315 315 315 315 315 316 317 316 316 317 317 318 319 318 319 320
311 311 313 314 314 315 314 314 316 316 314 315 315 316 316 317 317 317 317 316 316 315 313 315 316 312 312 314 314 313 313 314 315 316 316 316 316 316 316 315 315 315 315 315 315 315 314 314 314 314 314 314 313 313 313 313 313 314 313 313 313 312 313 313 313 314 314 315 315 315 315 315 315 315 315 316 317 316 316 317 317 317 317 317 317 318
312 311 312 314 315 315 313 311 314 317 315 313 313 316 317 318 318 318 317 316 316 313 313 316 315 312 311 313 314 312 313 315 316 316 316 316 316 315 316 315 315 316 316 316 315 316 315 315 315 315 314 314 314 314 314 314 313 313 313 313 312 313 313 313 314 314 314 315 315 315 315 315 315 315 316 316 316 316 316 316 315 315 316 315 315 315
310 309 311 314 313 312 311 310 312 316 315 313 315 316 316 316 316 316 315 315 314 313 314 314 313 312 311 312 315 314 312 315 316 315 315 315 315 315 315 315 315 315 316 316 316 316 316 316 315 315 315 315 315 315 315 315 314 314 313 313 313 313 314 314 314 314 315 315 315 315 315 315 316 316 316 316 315 315 315 315 315 315 315 315 315 314
311 310 312 312 310 311 312 312 312 313 314 316 317 316 315 315 315 314 314 314 313 313 312 310 311 313 311 311 315 313 312 314 316 315 315 315 315 315 315 314 314 315 315 315 316 316 316 316 316 316 316 316 315 316 316 315 315 315 314 315 315 315 315 315 315 315 315 315 315 315 315 315 315 315 315 315 315 315 315 315 315 315 315 315 314 314
314 313 313 312 309 311 314 313 312 313 314 316 316 314 314 314 315 315 314 314 313 312 309 309 311 313 311 312 314 313 312 314 316 316 316 316 316 315 314 314 314 314 314 315 315 315 316 316 316 316 316 316 316 316 316 316 316 315 316 315 316 315 316 315 315 315 315 315 315 315 315 315 315 315 315 315 314 314 314 314 314 314 314 314 314 314
316 314 314 314 311 311 313 313 313 313 314 315 316 313 313 314 314 315 314 313 313 311 308 309 312 312 311 313 314 313 313 314 315 315 315 316 315 315 314 314 313 314 314 314 314 315 315 315 315 315 315 315 315 315 315 315 315 315 315 315 315 315 315 315 315 315 315 315 315 314 314 314 314 314 314 314 314 314 314 314 314 314 313 313 313 313
315 314 313 314 313 312 313 314 313 314 314 315 317 315 313 314 314 314 314 314 314 312 309 309 311 311 311 312 312 312 312 312 311 312 313 314 314 313 313 313 313 313 314 314 314 314 314 314 314 314 315 315 315 315 315 315 315 315 315 315 315 315 314 315 315 314 314 314 314 314 314 314 314 314 314 313 314 313 313 313 313 313 313 313 313 313
315 314 312 312 311 311 313 313 313 315 316 315 316 316 314 314 314 312 311 312 312 312 311 310 311 313 313 312 310 311 311 310 310 311 312 312 312 312 313 313 313 313 313 314 314 314 314 314 314 314 314 314 314 314 314 314 314 314 314 314 314 314 314 314 314 314 314 314 314 314 314 314 314 314 314 313 313 313 313 313 313 313 313 313 313 313
314 314 312 311 311 310 311 311 311 312 315 314 314 314 312 313 313 311 310 309 309 311 313 312 312 312 313 312 311 311 311 310 310 312 312 312 312 313 314 314 312 312 312 313 313 314 314 314 314 314 314 314 314 314 314 314 314 314 314 314 314 314 314 313 314 314 313 314 313 314 314 313 313 313 313 313 313 313 313 313 313 313 313 313 313 313
314 313 312 312 313 310 308 310 310 310 312 313 314 314 311 311 312 311 311 311 310 311 312 312 312 311 311 312 312 311 311 310 310 312 313 313 313 314 314 314 312 312 312 312 313 313 313 313 314 314 314 314 313 313 313 313 313 313 313 313 313 313 314 313 314 313 313 314 313 313 313 313 313 313 313 313 313 313 313 313 313 313 313 313 312 312
316 315 312 311 313 311 309 311 312 310 311 312 313 313 313 313 312 311 312 312 312 312 311 310 310 310 311 312 312 312 312 311 310 312 313 313 313 314 315 313 312 312 312 312 313 313 313 313 313 313 313 313 313 313 313 313 313 313 313 313 313 313 313 313 313 313 313 313 313 313 313 313 313 313 313 313 313 312 312 312 312 311 311 311 310 310
316 316 315 311 311 312 311 312 314 313 311 310 311 312 313 314 313 312 312 312 312 312 312 311 310 310 312 314 313 312 313 312 311 312 313 313 314 314 314 313 312 312 312 312 312 313 313 313 313 313 313 313 313 313 313 313 313 313 313 313 313 313 313 313 313 313 313 313 313 313 313 313 312 312 311 311 311 310 310 309 309 309 308 308 308 307
313 314 316 312 311 312 313 313 314 315 313 311 311 312 312 313 312 312 313 311 311 311 311 312 311 311 312 313 314 314 313 313 312 312 313 314 314 315 314 313 312 312 312 312 313 313 313 313 313 313 313 313 313 313 313 313 313 313 313 313 313 313 313 313 313 313 313 312 312 311 311 311 310 310 309 309 309 308 308 307 307 306 306 305 305 305
312 313 316 313 312 313 313 311 310 312 313 313 313 313 313 313 312 313 313 312 310 310 311 311 311 312 312 311 312 313 313 314 313 312 314 314 314 314 314 312 312 312 312 312 313 313 313 313 313 313 313 313 313 313 313 313 313 313 313 313 313 313 313 313 312 312 312 311 311 310 309 309 309 308 308 308 307 307 306 306 305 304 304 303 303 303
314 315 315 314 313 313 312 309 306 307 310 312 312 313 314 314 313 313 314 312 310 309 309 310 311 312 310 307 309 310 310 312 314 314 314 315 314 314 313 312 312 312 312 312 312 312 312 313 312 313 313 313 313 313 313 313 313 313 313 312 312 312 312 311 311 311 310 310 310 309 309 308 307 307 306 306 305 305 304 303 303 303 302 302 302 302
314 315 315 313 313 312 310 309 307 307 310 312 313 312 313 315 315 313 313 313 312 310 310 310 312 313 311 307 308 308 306 308 312 314 314 314 314 314 313 312 312 312 312 312 312 312 312 312 312 312 312 312 312 312 312 313 312 312 312 312 312 311 311 310 310 310 309 309 309 308 307 306 305 305 304 304 304 303 302 302 302 301 301 301 301 301
313 315 316 314 314 314 313 312 311 311 311 313 314 313 313 315 315 312 311 311 312 313 313 311 312 313 311 307 307 306 306 307 310 314 315 314 314 313 312 312 312 311 312 312 312 312 312 312 312 312 312 312 312 312 312 312 312 312 312 311 311 311 310 309 309 308 308 308 308 306 305 304 304 303 303 303 302 302 301 301 301 301 300 300 300 300
314 316 316 315 315 315 315 315 315 314 313 313 314 315 313 314 314 313 312 312 313 315 315 312 312 312 310 308 307 307 306 307 309 313 314 314 314 313 312 312 312 312 312 312 312 312 312 312 312 312 312 312 312 312 312 312 311 311 311 311 310 310 309 308 307 306 306 305 305 305 304 303 303 303 302 302 301 301 301 301 301 300 300 300 300 300
315 317 316 314 315 315 315 317 318 317 315 315 316 316 314 315 315 314 314 313 313 315 315 314 313 313 312 311 309 308 307 307 309 312 314 314 313 312 312 311 312 312 312 312 312 312 312 312 312 312 312 312 312 311 312 311 311 311 310 310 309 308 307 306 305 305 304 303 303 303 303 303 302 302 302 301 301 301 301 301 300 300 300 300 299 299
314 316 316 316 316 315 315 316 318 318 317 317 317 317 316 315 315 315 315 315 315 314 314 314 315 315 314 313 311 310 309 308 310 312 313 313 313 312 311 311 311 311 311 311 312 311 312 312 312 312 312 311 312 311 311 311 310 310 309 308 307 306 305 305 304 304 303 302 302 302 302 302 302 302 301 301 301 301 301 300 300 300 299 299 298 298
314 313 315 316 316 316 315 315 316 317 316 316 317 317 317 315 315 316 315 315 316 315 314 315 317 316 314 313 313 312 310 309 310 312 312 312 312 312 311 310 310 311 311 311 312 311 312 312 312 312 312 311 311 311 310 310 309 308 307 306 306 305 304 304 303 302 302 301 301 302 302 301 301 301 301 301 300 300 300 299 299 299 298 298 298 298
313 313 315 316 315 317 318 315 316 317 317 318 318 317 316 315 314 315 314 314 315 316 315 316 319 318 315 314 314 313 311 310 311 311 311 312 312 311 311 310 310 311 311 311 311 311 311 312 312 311 311 311 311 311 310 309 308 307 306 305 305 304 303 302 302 301 301 301 301 301 301 301 300 300 300 299 299 299 299 298 298 298 298 297 297 297
312 314 318 316 314 317 318 315 315 316 316 318 319 318 316 315 315 314 315 315 315 316 316 316 319 319 316 315 314 313 311 311 311 311 311 312 312 311 311 310 310 311 311 311 311 311 311 311 311 311 311 311 311 310 309 308 307 307 306 304 303 302 302 301 301 301 300 300 300 300 300 300 299 299 299 299 298 298 298 298 297 297 297 297 297 296
311 312 315 313 312 316 317 313 313 313 312 315 318 318 316 315 315 314 315 315 315 315 316 316 318 317 315 315 314 312 311 311 311 312 311 312 312 311 310 310 310 311 311 311 311 311 311 311 311 311 311 311 310 309 309 308 307 306 304 303 302 301 301 300 300 300 300 300 300 300 299 299 299 298 298 298 298 297 297 297 297 296 296 296 296 296
312 312 313 312 312 316 314 311 311 312 311 312 314 316 316 315 315 314 314 315 315 315 316 316 316 315 314 314 314 312 311 311 311 311 311 312 312 311 310 310 311 311 311 311 311 311 311 311 311 311 311 310 310 309 308 307 306 304 302 301 301 300 300 300 300 299 299 299 299 299 298 298 298 298 297 297 297 297 297 296 296 296 296 296 296 296
313 313 313 312 313 315 311 311 312 312 311 313 314 315 315 315 315 315 315 314 314 314 314 315 315 314 313 313 313 313 312 311 311 311 311 311 311 311 311 311 311 311 311 311 311 312 312 311 311 311 310 310 309 308 307 305 303 302 301 300 300 300 299 299 299 299 299 298 298 298 298 298 297 297 297 297 296 296 296 296 296 296 296 295 295 295
313 313 312 312 313 312 310 311 312 312 312 314 315 314 314 314 314 315 316 314 314 314 314 314 314 314 314 313 313 313 312 311 311 310 310 311 311 311 311 311 311 311 311 311 312 311 311 311 311 310 310 309 308 307 305 303 302 301 300 300 299 299 298 298 298 298 298 298 297 297 297 297 297 297 297 296 296 296 296 296 295 295 295 295 295 295
313 312 311 312 312 311 309 311 312 314 314 314 314 313 312 313 315 315 316 315 314 314 314 314 314 314 315 314 313 313 312 311 310 310 310 310 310 311 311 311 311 311 311 312 312 311 311 311 310 310 309 308 307 305 303 302 301 300 299 298 298 298 298 297 297 297 297 297 297 297 297 297 297 296 296 296 296 296 295 295 295 295 295 294 294 294
312 312 311 311 312 311 311 311 312 314 314 314 314 313 312 313 314 314 314 314 314 313 314 314 313 314 314 313 312 311 310 310 311 311 310 309 309 310 310 311 311 311 311 312 311 311 311 310 310 309 308 307 305 303 302 301 300 298 298 297 297 297 297 297 297 297 297 297 297 297 296 296 296 296 296 295 295 295 295 295 294 294 294 294 294 294
312 312 312 312 312 312 312 312 312 313 313 314 315 314 311 312 313 313 314 314 313 313 313 313 313 313 313 312 310 309 309 310 312 312 311 310 310 309 309 309 310 310 311 311 311 311 310 310 309 308 307 305 304 302 301 299 298 297 297 297 297 297 297 297 297 297 297 297 296 296 296 296 295 295 295 295 294 294 294 294 293 293 293 293 293 293
312 312 312 312 312 312 312 313 313 313 313 315 316 313 311 312 313 313 313 313 313 313 313 313 313 313 313 311 309 309 311 312 312 312 311 311 311 309 308 308 309 309 310 311 311 310 310 309 308 307 305 304 302 301 299 297 297 296 297 297 297 297 297 297 297 297 296 296 296 295 295 295 295 294 294 294 293 293 293 293 292 292 292 292 292 292
311 311 311 312 313 312 312 313 313 312 314 316 315 311 311 312 312 312 313 313 313 313 313 313 312 312 313 311 309 310 311 311 312 312 312 311 311 310 308 308 308 309 310 310 310 309 309 308 307 305 304 302 300 299 297 296 296 296 297 297 297 297 297 297 297 296 296 295 295 295 295 294 294 294 293 293 293 292 292 292 292 292 291 291 291 291
311 311 311 311 312 312 313 313 312 312 316 317 312 309 310 311 312 313 313 313 313 313 312 312 312 312 312 311 309 310 311 310 311 312 311 311 311 310 308 307 307 308 309 309 309 308 308 307 305 304 302 300 298 297 296 296 296 297 297 297 297 297 297 296 296 296 295 295 295 294 294 293 293 292 292 292 292 291 291 291 291 291 291 291 291 290
312 312 312 312 312 312 313 313 312 313 315 313 309 308 310 312 313 313 312 310 311 311 311 311 311 311 311 311 310 310 310 309 310 310 310 310 310 309 308 307 307 307 308 308 308 307 307 305 303 302 300 298 296 296 296 296 297 297 297 297 297 297 296 296 296 295 295 294 294 293 293 292 292 291 291 291 291 291 291 291 290 290 290 290 290 290
313 313 313 313 312 313 314 313 314 315 313 310 309 309 310 312 313 312 310 308 309 311 311 310 311 310 311 311 310 310 309 309 308 308 309 309 309 309 308 307 307 307 307 307 307 306 305 304 302 300 298 296 296 296 296 296 297 297 297 297 296 296 296 296 295 295 294 293 293 292 292 291 291 291 291 291 290 290 290 290 290 290 289 289 289 289
313 314 314 313 313 314 314 315 314 313 310 309 311 312 310 311 311 310 310 309 309 310 311 310 311 311 311 311 310 310 309 308 308 308 308 308 308 308 308 307 307 307 307 306 305 304 303 301 300 298 297 296 296 296 296 296 297 297 297 296 296 296 295 295 294 293 293 292 291 291 291 291 290 290 290 290 290 290 290 289 289 289 289 289 289 289
311 312 312 313 313 313 314 314 313 310 309 310 312 311 310 310 310 309 310 310 310 310 310 310 310 310 311 311 310 309 309 308 308 307 307 307 307 307 307 306 306 306 306 305 304 302 301 299 298 297 296 296 296 296 296 296 296 296 296 296 295 295 294 293 293 292 291 291 291 290 290 290 290 290 290 289 289 289 289 289 289 289 289 288 288 288
307 306 308 312 313 312 312 312 310 308 308 309 310 309 310 310 310 309 310 310 310 310 309 309 310 310 310 310 310 309 309 308 307 306 306 307 307 306 306 306 305 305 305 303 302 301 299 297 296 296 296 296 296 296 296 296 296 296 295 295 294 293 293 292 291 291 291 290 290 290 290 290 289 289 289 289 289 289 289 288 288 288 288 288 288 288
305 305 308 311 312 313 313 312 309 309 309 309 309 309 309 310 310 310 310 311 310 309 309 309 310 310 310 309 309 308 308 307 306 306 306 306 306 306 305 305 304 303 303 302 301 299 298 297 296 296 296 296 296 296 296 296 295 295 294 294 293 292 292 291 291 290 290 290 290 289 289 289 289 289 289 289 289 288 288 288 288 288 288 288 288 287
307 307 309 310 310 311 312 309 307 307 308 308 309 309 309 310 310 310 310 310 309 309 309 309 309 309 309 309 308 308 307 307 307 306 306 306 306 305 305 304 303 302 301 300 299 297 296 296 296 295 295 296 296 296 295 295 294 294 293 293 292 291 291 291 290 290 290 289 289 289 289 289 289 289 289 288 288 288 288 288 288 288 288 287 287 287
306 307 309 309 309 310 310 308 305 306 307 308 309 309 310 310 310 310 310 310 309 309 309 309 309 309 309 309 308 308 307 307 307 307 306 306 306 305 304 303 302 301 299 298 297 296 295 295 295 295 295 295 295 295 294 294 294 293 292 292 291 291 290 290 290 289 289 289 289 289 289 289 288 288 288 288 288 288 288 288 287 287 287 287 287 287
304 306 307 308 309 310 309 308 307 308 308 307 306 307 308 308 308 308 309 309 309 309 309 308 308 308 308 308 308 307 307 307 307 306 306 306 306 305 304 303 301 299 298 297 296 295 295 295 295 295 295 295 294 294 294 293 293 292 291 291 291 290 290 289 289 289 289 289 289 288 288 288 288 288 288 288 287 287 287 287 287 287 287 287 287 287
304 306 306 306 307 307 305 305 305 306 306 304 303 303 304 305 306 306 307 308 308 308 308 307 307 307 308 308 307 307 307 307 306 306 306 305 305 304 303 301 300 298 297 296 295 295 295 295 295 295 295 294 294 293 293 292 291 291 291 290 290 289 289 289 289 289 288 288 288 288 288 288 288 287 287 287 287 287 287 287 287 287 287 287 287 287
Wind_Speed
12 8 8 9 10 13 13 9 4 4 9 13 12 9 7 8 5 4 6 3 1 3 7 10 10 10 10 8 9 9 9 8 10 11 11 11 12 12 11 12 14 16 16 17 19 18 18 21 23 24 23 23 22 23 23 23 23 22 22 22 22 22 22 22 22 21 19 19 18 17 17 17 17 18 18 19 19 19 20 19 18 18 19 19 21 22
9 8 10 12 10 13 11 4 2 2 7 10 9 8 8 7 4 5 4 3 1 2 4 5 8 11 11 9 10 10 9 9 11 12 12 11 11 11 10 13 17 17 18 20 20 18 18 20 22 23 24 24 23 23 24 24 23 23 23 23 23 23 23 23 23 21 20 19 16 14 13 13 13 14 15 15 15 17 17 16 15 16 17 19 21 21
8 9 11 9 5 8 7 4 3 4 6 7 6 7 6 5 5 5 3 4 2 2 1 1 5 10 10 10 10 9 9 9 8 9 10 10 10 9 9 12 17 19 20 21 20 20 21 21 21 22 23 23 24 24 24 24 24 24 24 24 24 24 24 23 23 22 21 18 15 12 11 11 12 12 13 14 13 14 15 15 16 17 18 19 18 19
9 6 5 6 7 9 7 6 6 5 5 5 6 7 5 6 5 2 4 5 2 1 2 3 5 8 8 10 8 4 4 5 6 8 11 12 13 13 12 14 18 20 20 20 20 22 23 23 23 23 23 23 24 25 25 25 25 25 24 24 24 24 24 24 23 23 22 19 16 15 14 14 14 12 13 14 14 14 15 16 17 17 16 17 17 18
6 1 2 3 8 10 9 9 8 6 5 3 4 5 4 7 4 2 6 6 2 2 2 4 6 7 7 10 7 4 4 4 4 6 7 7 10 12 13 15 18 19 20 20 20 21 23 24 25 26 26 26 25 25 26 26 25 25 25 24 24 24 24 24 23 23 22 21 19 18 17 17 17 15 15 16 16 16 16 15 16 16 15 15 15 17
4 3 1 5 9 11 10 9 10 8 6 4 4 2 3 7 7 7 9 7 2 4 3 1 5 4 4 9 7 5 5 5 4 4 4 3 4 5 6 9 13 15 16 17 18 19 21 22 25 26 28 28 28 28 27 26 26 25 25 25 25 25 24 24 24 23 22 22 21 20 19 19 18 17 16 16 16 15 15 15 15 15 15 15 15 16
3 2 1 5 8 9 10 10 10 9 6 5 3 2 4 6 8 9 9 6 2 2 2 1 5 3 2 6 6 5 5 5 5 5 4 3 2 2 3 6 9 10 11 12 13 14 15 17 20 22 24 26 28 28 27 27 26 27 27 27 27 26 26 25 24 23 22 21 20 19 19 18 17 16 15 15 14 14 15 15 15 15 15 16 17 17
4 4 2 5 8 7 8 7 7 9 7 2 1 1 5 7 9 10 8 5 1 2 2 2 2 4 4 3 5 6 5 5 6 5 4 3 2 2 1 3 7 9 10 10 9 10 11 13 14 16 17 19 21 22 23 24 25 27 28 28 27 26 25 24 22 21 19 18 18 17 16 15 15 15 14 13 14 15 15 15 16 16 16 17 18 18
3 6 6 8 8 7 6 1 2 7 5 1 1 0 4 6 8 9 6 3 1 0 4 4 3 3 6 2 5 5 6 7 8 7 5 3 2 2 1 1 5 8 9 10 10 10 10 9 10 10 11 11 12 13 14 16 19 21 22 23 22 21 20 18 17 16 14 14 14 14 14 14 14 14 13 14 14 15 16 16 16 17 18 19 19 19
2 2 2 4 6 5 3 5 4 1 1 4 4 4 6 5 6 5 3 3 2 3 4 4 3 4 5 4 5 5 6 8 8 6 4 4 3 2 2 3 4 7 9 10 10 10 9 9 9 9 9 9 9 9 10 10 11 12 14 15 15 15 15 14 13 13 13 13 14 14 13 13 13 13 13 14 14 14 14 15 16 16 17 18 19 19
2 2 2 2 1 2 5 6 6 4 6 9 7 8 8 5 4 2 1 2 3 5 2 3 1 2 4 5 5 4 2 4 7 7 5 5 5 4 4 4 5 8 10 11 11 11 11 11 11 11 11 10 10 10 9 9 9 9 10 11 12 12 12 12 12 12 12 12 11 11 10 10 10 10 10 10 10 11 11 12 13 14 15 16 17 18
4 4 2 3 2 2 5 7 7 4 6 7 6 8 7 4 3 3 2 2 5 4 1 2 2 2 5 4 2 3 2 1 4 7 8 8 8 6 5 6 8 10 12 13 14 14 14 14 14 13 13 13 13 12 12 11 11 11 11 11 11 11 10 10 10 9 8 7 7 6 6 5 5 5 5 5 5 6 7 8 9 10 11 12 13 14
4 4 2 3 1 3 4 6 5 2 3 3 6 8 6 5 4 4 4 4 5 2 2 1 1 3 6 7 3 2 3 2 3 6 10 11 11 9 7 9 13 14 15 16 17 18 18 18 18 17 17 16 16 15 15 14 13 13 13 12 11 11 10 9 8 7 6 5 5 4 4 3 2 1 1 0 1 3 4 5 6 8 9 10 11 11
4 2 3 3 2 5 5 5 5 4 5 7 8 8 6 6 5 6 6 4 3 1 1 0 0 3 5 6 5 3 8 7 7 8 10 11 12 9 9 11 15 16 17 18 20 20 21 21 21 20 19 19 18 17 16 15 15 14 14 13 12 12 12 11 10 10 9 9 8 7 6 5 4 2 2 1 2 3 4 5 6 7 7 8 9 10
5 3 5 4 3 6 6 2 1 5 8 5 3 3 5 5 4 5 5 4 3 3 2 1 2 3 3 0 3 3 10 11 9 9 9 10 10 11 12 13 14 16 18 20 21 21 22 21 20 20 19 18 18 17 17 16 16 16 16 15 14 14 14 13 12 11 10 9 7 6 4 3 2 0 1 2 3 3 4 5 6 7 7 8 9 10
5 1 1 1 1 3 4 1 3 3 7 3 1 1 3 2 1 1 0 1 2 2 2 4 3 4 2 3 5 5 9 10 8 9 9 9 10 12 12 11 12 16 19 20 21 22 22 21 20 20 19 19 19 19 19 18 18 17 16 15 14 13 12 11 10 9 7 6 5 4 3 2 1 1 2 2 3 3 4 5 6 6 7 8 8 9
4 1 3 2 1 1 1 2 3 0 3 2 1 3 2 2 3 3 1 2 1 3 3 4 4 3 2 4 7 9 8 8 8 9 10 10 11 11 10 9 13 18 19 21 23 23 23 22 22 21 21 21 20 19 18 17 16 15 14 13 12 11 10 9 8 7 6 5 4 4 3 2 1 1 1 1 2 3 3 4 5 6 7 7 8 9
4 3 3 1 2 3 4 2 2 3 2 2 3 4 3 1 2 1 2 2 2 5 2 4 5 4 4 4 6 10 10 9 9 10 12 12 11 11 10 10 15 19 21 23 24 25 25 24 23 22 21 20 19 18 16 15 14 12 12 11 10 10 9 8 8 7 6 5 4 3 3 2 1 1 2 2 3 3 4 5 6 7 8 9 9 10
2 3 3 2 1 2 2 1 3 1 2 1 1 2 2 1 3 3 3 2 4 5 3 4 5 4 5 4 7 12 13 12 12 12 12 13 13 13 11 12 17 20 22 24 25 25 25 24 23 21 20 18 17 16 15 14 13 12 11 10 9 8 8 7 7 6 5 5 4 3 3 2 2 2 2 2 3 4 5 6 7 8 9 10 11 11
1 1 2 1 1 1 1 3 5 5 2 1 0 1 0 1 2 3 4 3 3 5 5 4 3 3 6 6 9 14 16 15 15 14 13 15 17 15 13 15 20 22 23 25 25 25 24 23 22 20 19 18 16 16 14 13 12 11 10 9 8 7 7 6 6 5 5 5 4 4 3 3 3 2 2 3 4 5 6 7 8 9 10 11 11 12
1 1 2 3 1 2 3 3 4 5 5 4 5 5 4 2 0 1 3 2 2 4 5 5 4 3 3 5 9 14 16 16 16 14 14 18 19 16 16 20 24 24 25 26 25 25 23 22 21 20 19 18 16 15 14 13 12 11 10 9 8 7 6 6 6 5 5 5 5 4 4 3 3 2 3 4 5 6 7 7 9 9 10 11 12 13
1 0 4 4 3 4 2 1 2 1 2 3 5 7 7 5 3 3 5 2 0 3 3 2 4 2 2 0 2 5 8 12 18 17 16 19 20 17 18 24 26 26 27 26 26 25 24 23 21 20 19 17 16 15 13 13 12 11 10 9 9 8 7 7 7 6 6 5 5 4 3 3 2 3 3 4 5 5 6 7 8 9 10 11 12 13
2 3 4 4 2 2 1 2 1 1 1 2 3 4 5 6 6 6 5 3 3 2 1 1 3 2 2 2 3 2 2 3 15 21 19 20 21 18 21 26 27 27 28 27 26 25 24 22 20 19 18 16 16 15 14 13 12 11 11 10 10 9 8 8 7 7 6 5 4 3 2 2 2 2 2 3 4 5 6 7 8 9 10 12 13 14
2 3 4 3 2 1 1 1 2 1 1 3 4 4 4 4 4 3 2 1 3 4 3 3 5 3 2 2 2 2 3 2 8 19 22 21 20 20 24 28 27 28 28 27 26 24 22 21 19 18 18 17 16 15 14 13 12 12 11 10 10 9 9 8 7 6 6 5 4 3 2 1 1 1 2 3 5 6 7 9 10 11 12 13 14 15
5 3 4 5 3 2 2 2 2 2 3 5 5 6 6 3 3 3 0 1 2 6 7 6 6 4 1 2 1 1 3 2 5 14 21 21 20 21 25 27 27 28 28 26 25 23 22 21 20 19 19 18 17 16 15 14 13 12 12 11 10 10 9 8 7 6 6 5 5 4 3 1 1 2 4 5 7 8 10 11 12 13 14 16 16 17
8 3 5 7 6 6 6 6 6 5 4 4 4 6 8 8 7 5 3 3 4 6 7 7 7 3 2 3 3 3 5 6 7 13 17 18 20 23 26 28 29 30 29 27 26 24 24 23 21 20 19 18 18 17 16 15 14 14 13 12 11 10 10 9 7 7 6 5 5 4 2 1 2 3 5 7 8 10 11 13 14 15 16 17 18 19
3 1 6 9 8 9 9 7 7 7 7 8 10 11 12 12 11 7 3 5 7 5 5 8 9 6 3 5 6 5 7 9 10 13 15 16 21 26 28 30 32 31 30 28 27 26 25 24 22 21 20 20 19 17 16 16 15 14 14 13 12 11 10 9 8 7 5 5 4 3 1 1 3 5 6 8 10 11 13 14 16 17 18 19 21 22
2 2 8 10 11 9 4 3 8 10 10 12 14 14 13 12 12 9 7 10 8 4 6 10 10 11 10 8 8 8 8 8 10 15 18 21 26 29 29 30 31 30 30 29 29 28 26 25 23 22 21 20 19 18 17 16 16 15 14 13 12 11 10 9 8 7 5 4 3 2 0 2 4 6 8 10 11 13 15 16 18 19 20 22 23 24
1 7 9 10 13 8 2 4 7 10 10 11 11 11 12 12 13 12 13 14 10 7 11 12 12 14 14 9 9 10 11 12 16 20 23 25 28 28 29 30 31 31 32 31 30 29 27 26 24 23 22 21 19 18 18 17 16 15 14 13 12 11 10 9 8 7 5 3 2 0 2 3 6 7 9 11 13 14 16 17 19 21 22 23 25 26
2 7 7 9 12 8 3 4 3 7 8 8 9 11 13 14 15 14 14 16 15 13 14 12 7 10 11 9 8 10 14 14 13 16 18 21 26 29 30 32 34 34 34 33 32 30 28 26 25 24 22 21 20 19 19 18 16 15 14 14 13 12 11 9 8 6 4 2 1 2 3 5 7 9 10 12 14 16 17 19 21 22 24 25 26 27
2 3 4 5 7 5 4 4 0 2 4 5 5 8 12 13 14 14 13 14 15 15 16 12 7 8 9 8 5 8 13 11 10 14 18 20 26 31 33 35 36 36 35 35 33 32 30 28 26 24 23 22 21 20 19 18 17 16 16 15 14 12 10 8 7 5 3 2 2 4 5 7 9 10 12 14 16 18 20 22 24 25 26 27 28 29
2 1 2 3 5 4 2 3 4 3 2 1 2 7 12 12 12 13 13 13 13 14 16 14 11 10 7 7 6 8 12 12 12 16 19 20 27 34 36 37 37 37 37 37 35 33 31 28 25 24 24 23 22 21 20 20 19 18 17 16 14 12 9 7 5 4 3 3 4 6 7 9 11 13 15 17 19 21 23 25 26 28 29 30 30 31
5 4 2 4 6 3 2 2 6 6 1 4 6 11 15 14 14 13 11 13 15 15 13 11 12 9 4 8 7 5 8 11 13 18 22 24 28 34 37 38 38 38 38 38 38 34 30 27 26 25 25 23 22 22 21 21 20 19 17 15 13 10 8 5 3 2 3 4 6 7 9 11 13 16 18 20 22 23 25 27 28 29 30 30 31 31
7 6 4 5 5 2 1 2 5 4 7 8 7 12 17 17 16 13 12 15 16 14 12 10 10 7 5 10 10 8 11 15 19 24 27 29 31 35 37 37 36 37 38 38 37 33 29 28 28 27 25 24 23 23 22 21 20 18 16 14 11 8 6 4 2 3 4 5 7 9 11 13 15 17 19 21 23 25 26 28 29 30 31 31 32 32
9 6 5 5 4 1 2 3 5 8 11 6 1 5 11 13 13 12 14 17 17 16 15 14 14 10 8 10 12 11 15 20 23 23 26 30 33 37 40 39 37 37 38 38 36 34 32 31 29 26 25 24 24 23 22 20 19 17 15 12 9 7 5 3 3 3 5 7 9 11 13 15 17 19 21 23 25 27 28 29 30 31 32 33 34 34
8 7 4 3 3 3 3 6 8 5 3 1 1 1 4 7 10 12 13 15 15 14 14 15 16 15 11 10 11 10 11 15 17 21 27 29 31 35 40 42 41 39 38 37 36 35 33 31 27 27 26 25 24 23 21 20 19 16 13 10 8 6 4 3 3 4 7 9 11 14 16 18 20 22 24 26 27 28 30 30 31 32 34 35 36 36
6 7 6 4 4 3 4 7 6 4 2 4 4 4 6 7 9 10 11 12 11 13 14 14 15 15 11 9 11 10 8 7 8 17 27 28 27 32 38 40 41 38 35 35 35 34 32 30 28 27 26 25 24 23 21 20 17 14 11 9 7 5 3 3 4 7 9 12 14 16 19 21 23 24 26 27 28 29 30 31 32 33 35 36 37 38
4 5 6 6 4 3 5 6 5 5 8 8 4 7 10 10 10 9 7 9 10 17 21 17 14 16 12 8 11 10 7 3 5 13 26 28 25 28 33 35 37 35 34 34 34 34 32 30 28 27 26 25 24 23 21 18 15 13 10 8 6 4 3 4 7 9 12 14 16 18 21 22 24 25 26 27 28 29 30 31 32 34 35 37 38 40
3 2 3 5 5 5 6 6 6 7 8 5 4 7 11 15 13 9 5 10 11 16 23 20 16 18 15 12 15 13 7 4 6 11 23 28 27 29 31 32 34 35 35 34 34 34 33 30 28 27 26 25 24 21 20 17 14 12 9 6 5 3 4 7 9 11 13 15 17 19 21 22 24 25 26 27 28 29 30 31 33 34 35 36 38 39
4 3 4 7 7 7 7 6 6 6 4 3 6 6 11 18 17 10 5 9 5 13 24 24 19 20 20 20 20 13 8 11 9 7 14 21 26 29 30 30 33 35 35 34 33 33 31 28 28 27 26 24 22 20 18 15 12 10 8 6 5 5 6 8 10 12 14 15 17 19 20 22 23 24 25 27 28 29 30 31 32 34 35 36 38 39
5 5 6 8 8 8 9 7 6 5 3 4 5 9 16 18 13 8 7 4 4 14 23 24 22 24 25 23 21 16 16 19 13 7 8 14 20 25 27 28 31 32 32 33 32 31 30 28 27 26 24 23 21 19 17 14 11 9 7 6 5 6 8 9 11 13 14 16 17 18 20 21 22 23 25 26 27 28 30 31 33 35 36 37 39 40
6 6 6 8 8 8 7 7 6 6 4 7 8 12 17 12 6 6 4 3 5 9 13 16 20 22 21 20 23 24 22 19 15 11 9 11 16 22 24 26 29 29 30 31 30 29 29 28 27 25 24 22 20 18 15 13 11 9 7 6 7 8 9 10 12 13 15 16 17 18 20 20 21 23 24 25 27 29 30 32 33 35 36 38 40 41
6 6 6 6 6 5 5 7 8 6 4 17 17 8 6 4 2 5 7 6 4 4 6 9 13 14 14 16 22 25 21 17 17 15 13 14 16 19 21 24 27 28 30 30 30 29 28 27 26 25 23 21 19 16 14 12 10 9 8 8 8 9 10 11 13 14 16 17 18 19 19 20 21 22 24 26 28 30 31 33 34 35 37 38 40 42
6 7 5 5 6 6 5 8 5 2 10 24 16 5 10 9 4 9 10 7 6 4 3 4 5 8 11 13 17 21 22 20 19 17 16 17 18 19 21 24 25 28 30 30 30 29 28 26 26 25 22 20 18 16 14 12 10 9 9 9 9 10 11 12 13 15 16 17 18 18 19 20 21 23 25 27 29 30 32 33 35 36 37 39 41 43
5 4 2 3 6 4 3 5 3 3 13 21 6 3 15 19 7 10 10 6 5 3 2 3 5 7 9 12 15 20 22 22 21 20 19 19 19 21 23 25 27 29 29 29 29 28 27 25 24 23 21 19 17 15 13 11 11 10 10 10 10 11 12 13 14 15 16 17 18 18 20 21 22 24 26 27 29 31 32 34 35 37 38 40 42 44
1 0 1 1 3 2 4 7 3 3 8 15 6 2 11 18 14 8 4 5 7 8 9 9 9 10 11 14 17 19 22 23 21 19 19 20 21 23 25 26 28 28 28 29 28 28 27 25 23 21 20 18 16 15 13 12 11 11 10 10 11 12 13 13 15 16 17 17 18 19 21 22 24 25 27 28 29 31 33 34 36 38 40 41 42 44
1 2 2 1 3 4 5 7 5 4 7 13 13 9 8 12 16 17 14 11 11 13 16 15 15 14 15 17 18 20 22 22 21 20 21 22 23 24 26 27 28 29 29 29 28 27 26 25 23 21 20 18 16 14 13 12 11 11 11 11 12 13 14 15 16 17 17 18 19 20 22 24 26 27 28 30 31 32 34 35 37 39 40 42 43 44
3 5 4 3 5 5 4 1 3 3 7 10 12 14 12 10 11 12 13 15 17 19 20 20 19 18 17 17 17 18 19 20 21 21 22 23 24 25 27 28 29 30 30 29 28 27 26 24 23 21 19 17 15 14 13 12 11 11 11 12 13 14 15 16 17 17 18 19 20 22 23 25 27 28 30 31 32 34 35 36 37 39 40 41 42 44
4 6 4 3 4 5 6 1 4 2 3 8 12 16 17 15 14 14 16 19 19 20 21 21 20 18 16 14 14 15 16 17 19 20 22 24 26 27 28 30 31 31 31 30 29 27 25 24 22 20 18 16 15 13 13 12 11 11 12 13 14 15 16 17 17 17 19 20 21 23 24 26 27 29 31 32 34 35 36 37 38 40 41 41 42 44
4 5 3 3 5 5 4 3 4 1 1 2 4 8 11 14 17 19 20 21 20 20 21 21 19 17 15 13 13 13 14 15 17 20 22 24 26 28 30 32 33 32 32 30 28 26 25 23 21 20 17 15 14 13 13 12 12 12 13 14 15 16 16 16 16 18 19 20 22 23 25 27 29 30 32 34 35 37 38 38 39 40 42 43 44 45
5 4 3 3 4 2 3 5 3 0 2 5 6 6 6 5 8 13 16 19 20 21 20 19 17 16 15 14 13 13 14 14 16 19 22 24 27 29 31 32 33 33 32 30 28 27 26 24 22 19 17 15 14 14 13 13 13 14 14 15 15 15 15 16 17 18 19 21 23 24 27 29 30 32 33 35 36 38 40 41 42 42 44 45 46 47
Wind_Direction
182 186 200 206 198 197 200 198 204 220 203 191 188 200 196 189 186 113 97 88 314 235 216 226 242 252 253 246 243 223 190 206 237 241 242 239 240 240 233 233 236 239 239 238 241 239 234 233 234 235 235 233 232 232 233 234 234 235 237 239 240 243 245 246 248 246 244 244 245 245 247 250 252 254 256 258 260 262 263 262 262 267 270 268 266 269
184 204 205 206 202 192 189 168 118 177 194 190 188 192 197 201 163 96 96 108 74 268 215 214 252 257 256 254 249 238 216 218 234 235 235 235 235 236 234 239 243 244 243 243 246 241 234 232 232 234 235 234 233 232 233 234 233 234 236 237 238 241 243 245 248 250 248 248 246 244 248 251 251 253 255 257 259 262 265 264 262 263 265 265 264 267
195 214 199 186 165 153 141 127 160 169 180 189 191 196 203 177 128 101 111 118 116 250 206 147 270 262 259 257 246 232 222 226 234 232 235 237 235 236 239 246 248 247 247 247 246 243 239 234 233 233 234 234 233 232 232 232 233 232 233 235 237 239 241 243 247 249 248 246 243 239 241 244 247 251 254 257 258 260 262 262 262 261 261 264 267 267
194 205 176 135 129 138 136 157 169 160 176 193 189 197 195 152 154 186 155 139 131 227 314 337 288 271 264 255 241 201 194 224 240 243 245 245 241 240 241 245 249 249 250 250 247 245 242 239 237 235 234 233 231 232 231 231 231 232 232 233 236 239 241 243 245 248 247 245 242 241 242 242 246 252 257 260 260 262 266 269 271 270 265 263 263 264
178 70 11 139 157 165 162 172 181 178 178 192 201 202 180 156 150 51 129 142 138 177 257 304 280 267 244 236 224 142 143 198 221 238 242 245 245 246 246 247 250 250 251 249 246 244 242 241 240 238 237 235 232 232 232 232 232 232 233 234 236 239 241 243 245 248 249 248 246 245 248 249 251 256 261 267 270 272 276 275 272 269 264 259 260 266
164 42 274 164 169 181 179 183 196 200 188 181 210 214 156 160 134 99 130 145 180 199 191 260 262 260 208 218 214 154 164 177 167 203 210 208 237 243 246 248 249 248 247 245 242 240 239 239 240 239 238 236 234 233 232 232 232 232 234 235 237 239 241 243 246 249 251 253 253 249 250 253 256 260 264 268 272 273 274 272 270 267 260 255 255 260
116 89 190 156 165 180 192 199 194 203 209 187 186 93 116 151 137 133 155 170 212 194 120 218 250 254 185 203 193 164 182 181 169 193 194 180 202 212 226 240 241 238 235 235 232 232 231 233 237 239 237 236 236 235 234 233 232 233 235 237 240 241 243 245 247 250 252 256 258 255 253 254 254 257 259 262 265 264 263 263 264 264 260 256 253 253
113 140 143 151 162 171 195 204 181 200 222 182 104 125 147 156 152 154 171 194 225 96 132 199 244 268 259 206 150 160 193 199 194 194 179 169 182 183 196 229 228 222 214 209 209 213 216 222 230 234 235 234 234 235 234 234 234 235 238 240 242 243 245 246 247 250 252 256 258 255 253 250 247 249 250 254 258 259 261 262 263 265 266 266 264 262
96 154 156 158 172 180 195 233 139 199 220 75 353 250 141 148 156 164 180 189 54 235 202 176 156 248 255 194 128 165 208 215 207 194 174 154 143 141 116 183 210 204 196 188 188 193 197 203 210 215 217 216 216 219 221 225 229 232 235 237 237 237 239 240 241 243 245 247 247 245 242 240 240 242 245 250 256 262 266 269 271 271 272 272 271 269
22 154 145 166 186 176 124 33 13 252 150 150 172 108 95 104 122 150 190 158 139 247 224 162 164 250 258 215 165 175 220 222 203 180 156 141 128 126 116 130 167 173 173 174 174 175 176 176 177 179 182 181 182 187 191 198 205 211 216 217 218 220 223 224 226 228 229 231 231 231 231 231 236 240 247 255 263 270 273 276 277 275 276 277 276 275
37 75 37 32 169 127 97 70 19 21 113 146 158 118 104 105 104 115 176 151 198 231 209 105 97 277 269 233 183 166 232 217 181 164 152 146 138 130 123 124 140 150 155 156 155 156 156 156 157 157 157 156 156 160 162 166 169 173 179 187 193 198 203 208 211 214 217 219 221 222 225 230 238 247 258 267 273 277 280 282 284 285 286 286 286 285
96 116 103 60 83 136 116 85 38 48 135 150 155 135 124 120 137 162 157 196 230 226 141 55 6 258 241 233 166 96 45 140 174 170 160 153 148 141 136 141 147 148 147 145 144 145 144 144 145 144 143 142 141 141 142 144 146 147 152 158 166 171 177 184 189 196 199 201 206 211 218 227 237 250 262 271 277 281 288 294 298 301 302 302 302 300
117 109 98 82 113 214 162 113 79 78 173 188 166 156 159 153 168 198 183 199 227 210 80 61 14 253 244 245 239 144 139 143 152 159 155 151 149 143 142 152 154 150 147 146 144 143 142 140 139 137 135 134 133 133 134 135 137 140 143 146 151 154 154 156 156 155 153 151 149 148 147 148 146 148 153 335 319 320 322 321 321 320 318 319 318 316
140 110 145 135 168 225 215 158 145 169 190 191 177 176 188 170 173 202 191 197 221 136 63 321 267 254 253 261 271 196 147 131 110 122 136 142 143 140 143 152 154 151 150 149 146 143 142 140 138 136 135 134 134 134 134 134 136 137 135 135 136 134 131 130 128 125 124 122 120 119 116 115 111 102 79 23 351 341 332 326 325 323 324 325 325 326
173 165 178 162 150 192 208 216 158 166 178 191 193 197 206 196 196 206 195 196 179 114 110 183 209 239 233 121 8 73 117 114 104 111 119 126 135 143 148 149 150 150 151 150 148 147 146 144 142 140 140 139 137 135 133 131 130 128 127 126 127 126 125 125 125 124 124 123 122 122 120 120 118 102 326 317 312 314 314 314 318 321 325 328 330 332
178 131 105 49 14 184 185 293 333 168 172 184 355 232 229 241 137 124 126 99 105 108 155 183 227 268 255 120 104 105 115 113 114 126 133 135 140 148 149 146 147 149 150 150 150 150 148 146 145 143 140 137 134 131 130 128 128 128 128 128 129 130 129 130 131 132 133 134 137 141 147 161 190 242 269 287 299 307 315 323 329 334 340 342 342 342
174 102 29 32 49 41 31 354 341 303 172 162 159 189 208 9 68 115 134 76 52 260 186 169 229 259 230 167 142 142 142 134 138 149 154 154 153 156 153 150 153 153 151 149 148 148 146 144 143 141 139 137 135 134 134 134 135 136 136 137 138 138 138 140 142 143 145 147 150 155 160 167 181 217 292 330 342 348 352 354 352 352 352 351 348 346
172 119 34 7 105 55 1 5 53 24 21 140 170 171 145 34 21 168 214 139 196 244 192 164 221 223 211 200 150 156 167 164 165 170 168 165 167 169 164 158 159 156 152 150 148 147 146 145 146 145 144 144 143 143 142 142 142 143 143 143 143 142 143 143 143 144 145 144 145 146 142 136 122 81 47 29 18 10 2 355 348 343 342 338 336 335
145 122 72 9 60 84 2 261 144 66 9 22 225 176 131 206 217 192 214 205 199 230 229 186 208 228 228 202 161 176 186 180 177 179 175 174 178 176 166 163 163 158 152 151 150 151 151 152 152 151 151 151 150 150 149 148 146 145 144 143 142 143 141 141 141 141 139 137 137 133 128 119 97 76 56 30 13 360 349 342 338 334 334 333 333 334
91 161 132 68 21 104 177 223 195 176 143 49 267 184 65 272 226 195 207 224 217 222 230 199 182 227 230 201 179 187 193 185 179 180 180 180 181 176 168 168 167 159 155 155 155 156 156 157 157 156 156 156 155 154 152 150 148 147 146 144 145 146 144 142 141 140 139 136 135 127 120 112 95 74 46 23 7 355 348 345 341 339 340 341 341 342
118 268 141 111 45 182 186 210 211 184 168 175 179 177 185 189 225 254 219 221 247 230 230 226 223 225 200 194 195 194 195 189 180 177 179 179 178 174 170 172 169 164 162 161 159 159 159 159 159 159 159 158 157 156 153 153 152 152 151 150 152 152 151 151 149 149 147 140 136 127 117 106 85 62 34 15 4 356 350 345 342 341 341 342 342 342
165 159 132 135 174 190 173 29 343 317 176 197 195 190 194 179 155 205 209 175 250 253 247 245 258 254 117 68 239 193 195 191 179 173 172 175 175 171 172 176 174 170 168 164 163 163 161 161 161 161 160 160 160 159 159 160 160 159 159 159 160 160 159 160 158 156 151 143 136 126 112 94 63 38 19 3 354 348 342 339 339 339 340 340 340 340
84 97 118 130 167 182 87 48 41 321 291 271 253 219 204 194 191 210 216 180 166 211 351 328 273 268 102 47 12 40 13 183 172 169 168 172 173 168 174 180 178 174 171 169 168 166 163 163 163 163 164 165 166 167 167 167 166 166 167 165 164 163 163 163 162 160 154 147 139 125 106 81 45 21 6 354 345 344 344 343 344 344 344 343 342 340
109 113 121 113 91 110 148 127 121 110 263 253 243 228 216 205 196 209 240 178 161 171 175 218 245 245 114 70 25 35 26 40 165 170 169 168 168 169 177 182 180 178 176 172 170 167 166 167 167 168 170 170 172 172 171 172 171 171 173 172 169 169 166 164 162 162 162 160 157 150 139 124 68 21 1 355 351 352 352 351 350 349 346 344 342 341
175 153 133 134 142 174 186 193 193 184 212 230 224 206 204 183 103 94 201 258 216 194 191 215 244 242 122 103 84 111 139 148 177 177 172 166 163 168 177 182 182 181 178 174 171 170 171 173 174 176 176 175 176 176 175 176 176 177 179 178 178 177 175 173 169 168 171 173 171 164 153 138 53 9 358 356 355 352 350 348 346 344 341 340 338 337
177 176 159 167 171 178 196 208 204 189 183 211 213 185 190 191 174 173 208 228 223 198 187 215 243 240 112 142 166 147 156 171 181 182 177 168 165 170 178 183 184 183 179 175 175 176 177 179 180 180 180 181 181 180 180 181 182 184 183 182 184 185 182 180 175 172 175 173 167 158 145 100 8 357 352 351 349 345 342 340 338 335 334 332 332 331
158 237 187 200 202 197 209 209 179 151 149 186 202 195 196 199 193 190 208 219 219 205 193 220 238 246 216 175 178 181 179 181 183 182 176 167 171 177 182 185 185 184 181 179 179 181 182 183 184 184 185 185 185 185 186 189 189 189 188 186 185 184 180 178 177 177 179 178 170 160 149 4 344 342 342 340 337 334 332 330 329 328 328 328 327 327
111 214 198 216 225 219 216 162 153 156 173 198 202 195 193 192 187 189 212 222 215 202 229 229 225 241 243 199 181 195 191 184 186 186 182 177 179 183 185 186 186 185 184 183 184 186 186 187 187 187 189 188 188 190 191 192 192 190 189 187 183 182 181 182 184 186 187 186 178 167 161 335 334 333 332 330 328 327 326 326 326 326 326 326 325 325
170 207 200 210 225 227 103 102 165 179 193 208 202 191 185 180 181 191 213 226 215 205 239 236 212 226 242 220 193 190 185 192 194 191 187 183 182 184 186 187 189 189 189 188 189 190 190 191 191 191 192 191 192 195 194 194 192 189 187 187 185 186 186 187 188 188 189 195 200 266 337 335 332 330 330 328 327 326 325 325 325 324 324 323 323 323
207 209 199 198 221 224 116 94 194 196 198 208 199 190 183 178 187 197 211 225 220 218 236 242 225 231 239 234 217 191 185 194 192 183 182 181 184 188 189 191 193 193 194 193 193 193 193 194 195 194 194 195 197 198 197 195 192 190 191 192 191 190 189 187 188 188 196 218 279 335 340 337 333 331 330 327 326 325 324 323 322 321 321 320 320 320
232 213 170 168 217 222 119 93 172 196 209 208 182 179 178 179 195 207 218 225 223 228 241 248 262 263 241 224 207 158 157 165 163 172 183 187 191 193 194 195 197 197 198 198 196 196 196 196 197 197 197 199 200 199 198 197 196 196 197 195 193 190 188 188 190 196 216 255 313 335 335 333 330 328 327 325 325 324 323 322 321 321 320 320 320 320
199 216 94 134 206 213 120 133 142 90 20 285 180 182 181 183 197 207 217 220 214 223 237 240 249 258 232 185 156 132 146 161 169 180 189 192 198 200 199 198 199 200 201 201 199 198 198 198 199 201 202 202 202 201 201 201 201 199 196 193 190 188 189 192 199 216 254 298 324 330 331 330 328 327 326 325 324 323 322 322 321 321 320 320 320 319
174 175 137 166 202 210 39 119 134 103 71 244 223 201 190 195 205 206 214 221 215 217 225 227 236 245 194 157 165 156 160 176 186 192 196 198 202 205 204 201 202 204 204 203 202 200 200 200 203 204 204 204 204 204 204 204 202 197 193 191 189 190 192 198 214 256 295 316 325 328 330 328 327 326 324 323 323 322 322 321 321 320 319 318 317 317
180 187 174 180 202 220 29 121 128 153 221 232 221 200 196 201 203 201 210 217 214 215 222 233 242 234 165 169 193 195 188 200 209 210 210 209 206 207 207 204 205 207 206 204 204 202 202 204 205 205 205 206 206 205 204 201 198 194 191 189 188 188 193 205 239 284 305 317 324 325 326 325 324 323 322 322 322 322 322 321 320 319 318 316 316 316
178 187 179 183 196 165 122 150 178 216 230 233 191 184 201 206 202 204 220 222 216 216 223 237 247 236 199 196 209 207 206 214 218 219 221 219 214 211 208 207 208 209 207 205 205 205 207 207 206 205 205 205 205 204 201 197 195 193 190 187 184 184 190 212 251 289 309 316 320 321 322 323 323 323 323 324 324 324 323 322 320 319 317 316 316 316
178 178 170 171 168 144 144 184 206 234 242 178 73 105 197 203 197 207 231 233 221 215 218 227 238 238 224 210 209 208 210 218 224 229 230 226 221 217 213 211 210 210 210 209 208 209 210 209 207 206 205 204 203 200 197 195 194 192 186 181 180 185 197 226 270 301 314 319 321 323 325 326 327 327 327 327 326 324 323 320 319 318 317 316 316 316
189 180 173 175 174 171 184 197 218 306 319 216 212 191 184 185 181 196 233 243 223 212 217 224 233 238 228 200 192 195 200 217 240 243 237 231 227 225 222 219 217 214 212 212 212 213 213 210 207 206 203 202 200 197 196 196 194 188 182 178 182 192 213 258 297 311 318 323 326 328 330 330 331 330 328 327 324 322 320 319 319 318 317 317 316 316
216 199 188 195 195 188 204 210 218 247 244 236 203 164 172 179 174 175 214 251 234 212 211 216 228 234 223 173 164 174 181 217 254 243 237 234 234 232 227 223 222 220 217 217 216 215 213 209 205 202 200 199 198 197 196 194 189 184 180 182 191 207 251 291 311 318 323 327 329 330 331 330 330 328 325 323 321 319 319 318 318 318 317 317 317 316
220 247 211 206 195 181 204 218 208 219 240 235 144 149 169 172 161 143 183 254 251 213 207 212 223 231 224 186 170 166 163 214 240 236 234 235 234 230 225 220 219 218 216 218 218 215 211 206 201 198 197 196 196 194 193 190 186 185 184 189 206 242 284 301 314 319 323 328 329 329 329 327 325 322 320 318 317 317 317 317 317 317 317 317 317 316
185 202 206 213 208 195 203 219 222 234 245 165 140 154 164 157 145 133 195 256 244 184 198 212 219 223 219 199 182 174 191 221 235 239 231 231 230 226 222 218 215 213 212 212 211 210 207 202 197 195 194 193 191 189 189 188 187 188 190 201 228 268 291 302 313 318 323 327 326 325 324 320 318 317 315 315 315 315 317 318 317 318 317 317 318 317
177 193 201 210 215 208 205 220 243 250 207 154 140 150 150 146 147 174 214 248 142 165 193 208 211 216 216 200 186 194 215 224 235 247 227 225 225 220 216 214 213 211 210 208 205 203 200 196 194 193 191 189 188 187 188 189 191 196 203 221 250 278 292 303 313 318 321 322 320 318 316 313 312 312 312 314 315 316 318 319 319 319 319 319 318 317
175 187 199 207 213 216 216 222 243 252 199 136 121 142 151 154 187 205 174 113 141 173 193 203 207 215 217 205 201 210 219 224 233 240 228 222 223 218 213 210 209 207 206 203 201 199 197 194 191 189 187 186 187 189 191 193 199 207 221 243 265 282 295 305 312 315 316 316 313 311 310 309 310 311 313 316 317 317 319 320 319 319 319 318 318 317
171 173 191 204 198 202 220 208 223 265 161 130 122 131 174 195 209 153 125 101 122 157 180 198 210 218 219 217 215 216 219 223 228 230 224 218 218 215 209 206 204 202 199 197 196 196 195 193 188 185 185 186 189 192 195 199 207 219 236 256 271 284 296 304 309 310 310 308 307 306 306 308 311 314 316 318 318 318 319 319 319 319 319 319 319 318
175 173 185 204 192 188 208 200 207 298 153 149 139 153 200 192 101 102 119 100 79 92 148 194 221 230 228 229 224 217 218 223 225 222 216 209 207 205 202 198 197 196 195 194 193 192 191 189 187 185 185 188 190 194 197 205 218 232 247 263 276 288 297 302 303 303 302 302 302 303 307 311 315 317 318 319 319 319 319 320 320 320 320 320 320 320
196 186 168 196 193 188 220 208 166 103 172 176 154 86 181 188 153 99 112 91 52 27 307 272 264 260 248 241 231 223 222 222 220 216 211 205 202 200 197 195 195 196 195 194 193 190 188 187 187 187 187 189 192 196 203 214 229 242 255 269 279 288 293 295 295 296 297 299 303 307 312 315 317 318 319 320 320 320 320 321 321 321 321 322 322 322
308 236 60 140 179 206 262 233 184 103 189 202 217 90 171 192 204 206 234 307 319 306 296 283 273 269 259 248 240 231 226 222 216 211 208 205 203 200 198 198 197 196 196 194 192 190 188 187 188 189 191 193 196 202 212 224 236 249 260 270 279 286 289 291 293 295 298 302 308 313 315 317 318 319 320 321 321 321 321 322 322 322 322 322 322 321
297 180 162 177 174 189 236 227 186 177 210 214 222 229 209 207 218 231 252 274 280 281 279 276 272 266 258 253 246 235 228 222 215 211 208 206 205 202 201 200 197 195 195 194 192 191 190 189 191 192 194 198 203 211 220 230 241 253 263 273 281 286 289 291 294 297 302 308 313 316 318 319 320 321 321 321 321 321 322 322 322 321 321 321 321 321
186 165 171 213 204 204 239 274 94 170 210 212 224 233 231 226 225 231 244 254 260 264 265 267 271 269 262 257 247 236 230 224 219 215 210 207 206 205 203 201 197 194 193 192 192 192 192 192 194 195 198 204 211 219 228 237 247 258 267 276 281 285 289 292 296 301 307 312 315 318 319 320 320 320 320 321 321 321 321 321 321 320 320 321 321 321
144 157 163 185 204 237 261 251 81 57 235 221 226 229 229 233 237 237 243 252 257 260 263 266 269 267 260 248 234 227 223 220 219 218 214 209 208 207 204 201 197 195 192 191 191 192 193 195 196 198 203 210 217 226 235 244 253 263 270 275 279 283 287 291 297 304 309 313 316 319 320 319 319 319 320 320 320 320 320 320 319 319 320 321 322 321
159 181 178 172 198 241 270 186 157 198 284 182 212 240 243 245 249 251 255 259 262 264 266 265 262 254 239 222 213 216 219 219 218 218 217 214 211 208 204 200 197 194 192 191 191 193 195 198 201 204 209 216 223 231 240 249 257 263 268 272 275 279 284 291 300 306 310 315 318 319 319 318 319 319 319 320 320 319 319 319 319 319 320 321 321 321
200 205 180 186 218 215 70 83 111 149 42 62 42 4 343 311 278 268 266 267 267 267 266 263 257 246 231 219 218 224 229 231 229 223 219 216 212 208 204 200 197 195 193 193 194 196 198 201 205 209 214 221 229 237 244 250 254 258 263 268 273 280 289 298 304 308 314 318 318 318 318 317 318 318 319 320 320 319 319 319 319 320 321 321 320 320